Find Starlink 34553

NORAD ID: 64681 Int'l Des: 2025-139 Owner: SPXS Country: US Constellation: starlink operational
LEOCIRCULAR

Current View

Loading 3D Globe...

About Starlink 34553

Starlink 34553 (NORAD 64681) is a starlink constellation satellite (v2 mini) launched Jun 28, 2025 by SPXS of US. It operates in LEO, CIRCULAR orbit with a mass of 575.00 kg.

Upcoming Passes

Passes for default location (London). Set your location on the main map for personalized predictions.

Altitude History

Loading altitude history...

Two-Line Element Set

1 64681U 25139T 26235.92790110 .00027237 00000-0 81403-3 0 9992
2 64681 53.1588 66.3572 0001004 88.8590 271.2528 15.34411738 65947
Epoch: Aug 23, 2026 • Age: 32 hours

Current Status

Altitude 468.0 km
Apogee / Perigee N/A
Velocity 7.64 km/s
Sub-Earth Point 51.89°N, 105.27°E
Launch Date Jun 28, 2025
Age 1.1 years
Type internet

Technical Details

Classification Payload
Mass 575.00 kg
Dry Mass 530.00 kg
Total Mass 575.00 kg
Length 0.30 m
Diameter 4.10 m
Span 29.00 m
Shape Box + pan
Manufacturer SPXS
Bus Type Starlink V2MO
Phase Status In Orbit
Owner/State SPXS/US

Most Searched